TimeCST,TemperatureF,Dew PointF,Humidity,Sea Level PressureIn,VisibilityMPH,Wind Direction,Wind SpeedMPH,Gust SpeedMPH,PrecipitationIn,Events,Conditions,WindDirDegrees,DateUTC
12:15 AM,39.2,23.0,52,30.01,10.0,SSW,10.4,-,N/A,,Clear,210,2012-11-25 06:15:00
12:35 AM,37.4,23.0,56,30.00,10.0,SSW,10.4,-,N/A,,Clear,200,2012-11-25 06:35:00
12:55 AM,37.4,23.0,56,29.98,10.0,SSW,10.4,-,N/A,,Clear,200,2012-11-25 06:55:00
1:15 AM,39.2,23.0,52,29.97,10.0,SSW,12.7,-,N/A,,Clear,200,2012-11-25 07:15:00
1:35 AM,41.0,23.0,49,29.98,10.0,SSW,11.5,-,N/A,,Clear,210,2012-11-25 07:35:00
1:55 AM,41.0,23.0,49,29.97,10.0,SSW,11.5,-,N/A,,Clear,200,2012-11-25 07:55:00
2:15 AM,41.0,23.0,49,29.96,10.0,SSW,12.7,-,N/A,,Clear,200,2012-11-25 08:15:00
2:35 AM,39.2,23.0,52,29.97,10.0,SSW,9.2,-,N/A,,Clear,200,2012-11-25 08:35:00
2:55 AM,39.2,23.0,52,29.97,10.0,SSW,9.2,-,N/A,,Clear,210,2012-11-25 08:55:00
3:15 AM,39.2,23.0,52,29.96,10.0,SSW,10.4,-,N/A,,Clear,210,2012-11-25 09:15:00
3:35 AM,39.2,23.0,52,29.96,10.0,SSW,9.2,-,N/A,,Clear,210,2012-11-25 09:35:00
3:55 AM,37.4,23.0,56,29.96,10.0,South,9.2,-,N/A,,Clear,190,2012-11-25 09:55:00
4:15 AM,37.4,23.0,56,29.95,10.0,South,10.4,-,N/A,,Clear,190,2012-11-25 10:15:00
4:35 AM,39.2,23.0,52,29.95,10.0,South,11.5,-,N/A,,Clear,190,2012-11-25 10:35:00
4:55 AM,39.2,23.0,52,29.95,10.0,South,10.4,-,N/A,,Clear,190,2012-11-25 10:55:00
5:35 AM,37.4,23.0,56,29.95,10.0,South,9.2,-,N/A,,Clear,190,2012-11-25 11:35:00
5:55 AM,37.4,23.0,56,29.94,10.0,South,9.2,-,N/A,,Clear,190,2012-11-25 11:55:00
6:15 AM,39.2,23.0,52,29.94,10.0,South,11.5,-,N/A,,Clear,190,2012-11-25 12:15:00
6:35 AM,39.2,23.0,52,29.94,10.0,South,11.5,-,N/A,,Clear,190,2012-11-25 12:35:00
6:55 AM,41.0,23.0,49,29.94,10.0,South,11.5,-,N/A,,Clear,190,2012-11-25 12:55:00
7:15 AM,41.0,23.0,49,29.94,10.0,South,10.4,-,N/A,,Clear,190,2012-11-25 13:15:00
7:35 AM,41.0,23.0,49,29.94,10.0,South,10.4,-,N/A,,Clear,190,2012-11-25 13:35:00
7:55 AM,42.8,24.8,49,29.94,10.0,SSW,11.5,-,N/A,,Clear,200,2012-11-25 13:55:00
8:15 AM,44.6,24.8,46,29.94,10.0,SSW,11.5,-,N/A,,Clear,200,2012-11-25 14:15:00
8:35 AM,44.6,26.6,49,29.95,10.0,SSW,11.5,-,N/A,,Clear,210,2012-11-25 14:35:00
8:55 AM,46.4,26.6,46,29.95,10.0,SSW,13.8,-,N/A,,Clear,210,2012-11-25 14:55:00
9:15 AM,48.2,26.6,43,29.96,10.0,SW,11.5,-,N/A,,Clear,220,2012-11-25 15:15:00
9:35 AM,50.0,26.6,40,29.96,10.0,SSW,13.8,20.7,N/A,,Clear,210,2012-11-25 15:35:00
9:55 AM,51.8,28.4,41,29.96,10.0,SW,13.8,20.7,N/A,,Clear,220,2012-11-25 15:55:00
10:15 AM,51.8,28.4,41,29.96,10.0,SW,13.8,-,N/A,,Clear,220,2012-11-25 16:15:00
10:35 AM,53.6,30.2,41,29.96,10.0,SW,10.4,-,N/A,,Clear,220,2012-11-25 16:35:00
10:55 AM,55.4,32.0,41,29.95,10.0,SSW,13.8,-,N/A,,Clear,210,2012-11-25 16:55:00
11:15 AM,55.4,32.0,41,29.95,10.0,SW,9.2,17.3,N/A,,Clear,230,2012-11-25 17:15:00
11:35 AM,57.2,32.0,38,29.93,10.0,SW,8.1,-,N/A,,Clear,230,2012-11-25 17:35:00
11:55 AM,59.0,32.0,36,29.92,10.0,SW,10.4,-,N/A,,Clear,220,2012-11-25 17:55:00
12:15 PM,59.0,32.0,36,29.91,10.0,SW,9.2,-,N/A,,Clear,230,2012-11-25 18:15:00
12:35 PM,59.0,32.0,36,29.91,10.0,SSW,9.2,-,N/A,,Clear,210,2012-11-25 18:35:00
12:55 PM,59.0,32.0,36,29.89,10.0,SW,10.4,-,N/A,,Clear,220,2012-11-25 18:55:00
1:15 PM,60.8,33.8,36,29.88,10.0,SSW,8.1,-,N/A,,Clear,200,2012-11-25 19:15:00
1:35 PM,60.8,33.8,36,29.88,10.0,SSW,4.6,-,N/A,,Clear,210,2012-11-25 19:35:00
1:55 PM,60.8,33.8,36,29.87,10.0,Calm,Calm,-,N/A,,Clear,0,2012-11-25 19:55:00
2:15 PM,60.8,33.8,36,29.86,10.0,SW,3.5,-,N/A,,Clear,220,2012-11-25 20:15:00
2:35 PM,62.6,35.6,37,29.86,10.0,SSW,5.8,-,N/A,,Clear,210,2012-11-25 20:35:00
2:55 PM,62.6,33.8,34,29.86,10.0,SW,3.5,-,N/A,,Clear,230,2012-11-25 20:55:00
3:15 PM,62.6,33.8,34,29.86,10.0,Calm,Calm,-,N/A,,Clear,0,2012-11-25 21:15:00
3:35 PM,62.6,35.6,37,29.86,10.0,South,5.8,-,N/A,,Clear,170,2012-11-25 21:35:00
3:55 PM,62.6,35.6,37,29.86,10.0,SSW,5.8,-,N/A,,Clear,210,2012-11-25 21:55:00
4:15 PM,60.8,35.6,39,29.86,10.0,Calm,Calm,-,N/A,,Clear,0,2012-11-25 22:15:00
4:35 PM,59.0,35.6,42,29.86,10.0,Calm,Calm,-,N/A,,Clear,0,2012-11-25 22:35:00
4:55 PM,59.0,35.6,42,29.87,10.0,Calm,Calm,-,N/A,,Clear,0,2012-11-25 22:55:00
5:15 PM,57.2,35.6,44,29.87,10.0,Calm,Calm,-,N/A,,Clear,0,2012-11-25 23:15:00
5:35 PM,55.4,35.6,47,29.88,10.0,Calm,Calm,-,N/A,,Clear,0,2012-11-25 23:35:00
5:55 PM,51.8,35.6,54,29.88,10.0,Calm,Calm,-,N/A,,Clear,0,2012-11-25 23:55:00
6:15 PM,53.6,35.6,51,29.89,10.0,NNE,3.5,-,N/A,,Clear,20,2012-11-26 00:15:00
6:35 PM,51.8,33.8,50,29.90,10.0,NNE,4.6,-,N/A,,Clear,20,2012-11-26 00:35:00
6:55 PM,50.0,33.8,54,29.91,10.0,NE,5.8,-,N/A,,Clear,40,2012-11-26 00:55:00
7:15 PM,50.0,33.8,54,29.91,10.0,NNE,4.6,-,N/A,,Clear,30,2012-11-26 01:15:00
7:35 PM,48.2,33.8,58,29.92,10.0,NE,4.6,-,N/A,,Clear,40,2012-11-26 01:35:00
7:55 PM,48.2,33.8,58,29.92,10.0,NE,4.6,-,N/A,,Clear,50,2012-11-26 01:55:00
8:15 PM,46.4,33.8,62,29.92,10.0,NE,5.8,-,N/A,,Clear,50,2012-11-26 02:15:00
8:35 PM,46.4,32.0,57,29.93,10.0,ENE,5.8,-,N/A,,Clear,60,2012-11-26 02:35:00
8:55 PM,46.4,32.0,57,29.93,10.0,ENE,4.6,-,N/A,,Clear,60,2012-11-26 02:55:00
9:15 PM,44.6,32.0,61,29.93,10.0,ENE,8.1,-,N/A,,Clear,60,2012-11-26 03:15:00
9:35 PM,44.6,32.0,61,29.93,10.0,ENE,5.8,-,N/A,,Clear,60,2012-11-26 03:35:00
9:55 PM,44.6,32.0,61,29.93,10.0,ENE,6.9,-,N/A,,Clear,70,2012-11-26 03:55:00
10:15 PM,46.4,32.0,57,29.93,10.0,East,8.1,-,N/A,,Clear,80,2012-11-26 04:15:00
10:35 PM,42.8,32.0,66,29.93,10.0,ENE,6.9,-,N/A,,Clear,70,2012-11-26 04:35:00
10:55 PM,44.6,32.0,61,29.94,10.0,East,5.8,-,N/A,,Clear,80,2012-11-26 04:55:00
11:15 PM,44.6,32.0,61,29.94,10.0,East,5.8,-,N/A,,Clear,80,2012-11-26 05:15:00
11:35 PM,42.8,32.0,66,29.94,10.0,East,8.1,-,N/A,,Clear,80,2012-11-26 05:35:00
11:55 PM,42.8,32.0,66,29.94,10.0,East,9.2,-,N/A,,Clear,80,2012-11-26 05:55:00